Weather History for Superior, WI

Change the Weather History Date:

Friday, January 18, 2013

  Actual Average Record
Temperature  
Mean Temperature 10 °F -  
Max Temperature 19 °F 21 °F 44 °F (1981)
Min Temperature 2 °F 3 °F -32 °F (1967)
Degree Days  
Heating Degree Days 54    
Moisture  
Dew Point 10 °F    
Average Humidity 84    
Maximum Humidity 89    
Minimum Humidity 77    
Precipitation  
Precipitation 0.09 in - - ()
Sea Level Pressure  
Sea Level Pressure 29.93 in    
Wind  
Wind Speed 2 mph (ESE)    
Max Wind Speed 9 mph    
Max Gust Speed -    
Visibility 8 miles    
Events Snow    
Averages and records for this station are not official NWS values.
T = Trace of Precipitation, MM = Missing Value Source: NWS Daily Summary

Daily Weather History Graph

Daily Weather History Graph

Search for Another Location

Airport:

Trip Planner

Search our weather history database for the weather conditions in past years. The results will help you decide how hot, cold, wet, or windy it might be!

Date:

Astronomy

Jan. 18, 2013 Rise Set
Actual Time 7:46 AM CST 4:51 PM CST
Civil Twilight 7:12 AM CST 5:25 PM CST
Nautical Twilight 6:35 AM CST 6:02 PM CST
Astronomical Twilight 5:59 AM CST 6:39 PM CST
Moon 10:54 AM CST (1/18) 12:11 AM CST (1/18)
Length of Visible Light 10h 12m
Length of Day
9h 05m
Waxing Crescent, 47% of the Moon is Illuminated
Jan 18
Waxing Crescent
Jan 18
First Quarter
Jan 26
Full
Feb 3
Last Quarter
Feb 10
New

Hourly Weather History & Observations

Time (CST) Temp. Windchill Dew Point Humidity Pressure Visibility Wind Dir Wind Speed Gust Speed Precip Events Conditions
12:15 AM 2.7 °F - -2.2 °F 80% 30.30 in 10.0 mi Calm Calm - N/A   Overcast
12:35 AM 3.2 °F - -1.8 °F 80% 30.29 in 10.0 mi Calm Calm - N/A   Overcast
12:55 AM 3.2 °F - -1.3 °F 82% 30.28 in 10.0 mi Calm Calm - N/A   Overcast
1:15 AM 3.6 °F - -1.3 °F 80% 30.28 in 10.0 mi Calm Calm - N/A   Overcast
1:35 AM 4.1 °F -3.2 °F -0.6 °F 81% 30.26 in 10.0 mi SSW 3.5 mph - N/A   Overcast
1:55 AM 4.8 °F - -0.4 °F 79% 30.25 in 10.0 mi Calm Calm - N/A   Overcast
2:15 AM 5.5 °F - -0.2 °F 77% 30.24 in 10.0 mi Calm Calm - N/A   Overcast
2:35 AM 5.7 °F - -0.2 °F 77% 30.24 in 10.0 mi Calm Calm - N/A   Overcast
2:55 AM 5.9 °F - 0.3 °F 78% 30.22 in 10.0 mi Calm Calm - N/A   Overcast
3:15 AM 6.6 °F - 1.2 °F 79% 30.21 in 10.0 mi Calm Calm - N/A   Overcast
3:35 AM 7.0 °F - 1.9 °F 80% 30.19 in 10.0 mi Calm Calm - N/A   Overcast
3:55 AM 7.3 °F - 2.5 °F 81% 30.18 in 5.0 mi Calm Calm - N/A Snow Light Snow
4:15 AM 7.7 °F - 3.7 °F 84% 30.15 in 1.8 mi Calm Calm - N/A Snow Light Snow
4:35 AM 8.1 °F - 4.5 °F 85% 30.14 in 2.0 mi Calm Calm - N/A Snow Light Snow
4:55 AM 8.2 °F - 5.2 °F 87% 30.12 in 1.0 mi Calm Calm - N/A Snow Snow
5:15 AM 8.4 °F 1.8 °F 5.5 °F 88% 30.11 in 1.0 mi NE 3.5 mph - N/A Snow Snow
5:35 AM 9.0 °F 2.4 °F 5.9 °F 87% 30.09 in 1.2 mi ENE 3.5 mph - N/A Snow Light Snow
5:55 AM 10.0 °F 1.8 °F 7.2 °F 88% 30.07 in 1.8 mi East 4.6 mph - 0.01 in Snow Light Snow
6:15 AM 10.2 °F 3.8 °F 7.3 °F 88% 30.05 in 2.0 mi East 3.5 mph - N/A Snow Light Snow
6:35 AM 10.4 °F 4.0 °F 7.7 °F 89% 30.04 in 1.5 mi East 3.5 mph - 0.01 in Snow Light Snow
6:55 AM 10.8 °F 4.5 °F 7.7 °F 87% 30.01 in 1.2 mi East 3.5 mph - 0.01 in Snow Light Snow
7:15 AM 10.9 °F 4.7 °F 8.2 °F 89% 29.99 in 1.2 mi East 3.5 mph - N/A Snow Light Snow
7:35 AM 11.3 °F 1.9 °F 8.6 °F 89% 29.97 in 1.2 mi NE 5.8 mph - 0.01 in Snow Light Snow
7:55 AM 11.3 °F 3.3 °F 8.6 °F 89% 29.96 in 1.0 mi ENE 4.6 mph - 0.01 in Snow Light Snow
8:15 AM 12.7 °F 5.0 °F 9.5 °F 87% 29.96 in 1.8 mi East 4.6 mph - N/A Snow Light Snow
8:35 AM 13.1 °F 4.0 °F 9.9 °F 87% 29.95 in 1.8 mi East 5.8 mph - N/A Snow Light Snow
8:55 AM 13.5 °F 2.2 °F 10.2 °F 87% 29.94 in 1.5 mi East 8.1 mph - N/A Snow Light Snow
9:15 AM 14.0 °F 3.9 °F 9.9 °F 84% 29.94 in 4.0 mi ESE 6.9 mph - N/A Snow Light Snow
9:35 AM 14.4 °F 4.3 °F 10.2 °F 84% 29.93 in 4.0 mi ESE 6.9 mph - N/A   Overcast
10:15 AM 14.9 °F 5.0 °F 11.1 °F 85% 29.91 in 3.0 mi East 6.9 mph - 0.01 in Snow Light Snow
10:35 AM 15.4 °F 5.6 °F 11.7 °F 85% 29.91 in 0.8 mi East 6.9 mph - 0.01 in Snow Light Snow
10:55 AM 15.6 °F 4.0 °F 12.0 °F 86% 29.89 in 5.0 mi East 9.2 mph - 0.01 in Snow Light Snow
11:15 AM 16.2 °F 6.5 °F 12.6 °F 86% 29.87 in 4.0 mi East 6.9 mph - N/A Snow Light Snow
11:35 AM 16.5 °F 8.1 °F 12.9 °F 86% 29.86 in 5.0 mi East 5.8 mph - N/A   Overcast
11:55 AM 16.7 °F 6.2 °F 13.1 °F 86% 29.85 in 10.0 mi East 8.1 mph - N/A   Overcast
12:15 PM 16.7 °F 7.2 °F 12.9 °F 85% 29.83 in 10.0 mi ESE 6.9 mph - N/A   Overcast
12:35 PM 16.7 °F 8.3 °F 12.9 °F 85% 29.81 in 10.0 mi East 5.8 mph - N/A   Overcast
12:55 PM 16.9 °F 6.4 °F 12.7 °F 84% 29.80 in 10.0 mi East 8.1 mph - N/A   Overcast
1:15 PM 17.4 °F 9.1 °F 13.1 °F 83% 29.79 in 10.0 mi ESE 5.8 mph - N/A   Overcast
1:35 PM 17.6 °F 7.3 °F 12.9 °F 82% 29.77 in 10.0 mi East 8.1 mph - N/A   Overcast
1:55 PM 17.6 °F 9.3 °F 12.7 °F 81% 29.78 in 10.0 mi East 5.8 mph - N/A   Overcast
2:15 PM 18.0 °F 8.7 °F 13.1 °F 81% 29.77 in 10.0 mi ESE 6.9 mph - N/A   Overcast
2:35 PM 18.0 °F 11.1 °F 13.3 °F 82% 29.77 in 10.0 mi ESE 4.6 mph - N/A   Overcast
2:55 PM 18.0 °F - 12.9 °F 81% 29.77 in 10.0 mi Calm Calm - N/A   Overcast
3:15 PM 17.6 °F - 12.7 °F 81% 29.80 in 10.0 mi Calm Calm - N/A   Overcast
3:35 PM 18.1 °F 11.3 °F 13.1 °F 81% 29.76 in 10.0 mi SE 4.6 mph - N/A   Overcast
3:55 PM 18.1 °F 11.3 °F 12.6 °F 79% 29.76 in 10.0 mi SE 4.6 mph - N/A   Overcast
4:15 PM 18.1 °F - 12.6 °F 79% 29.76 in 10.0 mi Calm Calm - N/A   Overcast
4:35 PM 18.1 °F - 12.7 °F 79% 29.75 in 10.0 mi Calm Calm - N/A   Overcast
4:55 PM 17.6 °F - 12.9 °F 82% 29.76 in 10.0 mi Calm Calm - N/A   Overcast
5:15 PM 17.6 °F 12.3 °F 13.1 °F 83% 29.78 in 10.0 mi West 3.5 mph - N/A   Overcast
5:35 PM 18.0 °F 12.7 °F 13.1 °F 81% 29.78 in 10.0 mi WNW 3.5 mph - N/A   Overcast
5:55 PM 18.1 °F - 13.3 °F 81% 29.79 in 10.0 mi Calm Calm - 0.02 in   Overcast
6:15 PM 18.1 °F - 14.0 °F 84% 29.80 in 10.0 mi Calm Calm - 0.01 in   Overcast
6:35 PM 18.1 °F - 14.2 °F 84% 29.79 in 10.0 mi Calm Calm - 0.02 in   Overcast
6:55 PM 18.5 °F - 14.5 °F 85% 29.79 in 10.0 mi Calm Calm - 0.02 in   Overcast
7:15 PM 18.5 °F - 14.7 °F 85% 29.80 in 10.0 mi Calm Calm - 0.01 in   Overcast
7:35 PM 18.5 °F - 14.9 °F 86% 29.78 in 10.0 mi Calm Calm - 0.01 in   Overcast
7:55 PM 18.5 °F - 14.9 °F 86% 29.79 in 10.0 mi Calm Calm - 0.01 in   Overcast
8:15 PM 18.9 °F - 14.9 °F 85% 29.79 in 10.0 mi Calm Calm - N/A   Overcast
8:35 PM 18.9 °F 13.7 °F 15.3 °F 86% 29.79 in 10.0 mi SSW 3.5 mph - N/A   Overcast
8:55 PM 18.9 °F 13.7 °F 15.3 °F 86% 29.79 in 10.0 mi SW 3.5 mph - N/A   Overcast
9:35 PM 18.9 °F 13.7 °F 15.3 °F 86% 29.77 in 10.0 mi South 3.5 mph - N/A   Overcast
9:55 PM 18.5 °F - 15.1 °F 86% 29.77 in 10.0 mi Calm Calm - N/A   Overcast
10:15 PM 18.9 °F 13.7 °F 15.4 °F 87% 29.77 in 10.0 mi SW 3.5 mph - N/A   Overcast
10:35 PM 18.9 °F 12.1 °F 15.4 °F 87% 29.77 in 10.0 mi SW 4.6 mph - N/A   Overcast
10:55 PM 18.9 °F - 15.6 °F 87% 29.78 in 10.0 mi Calm Calm - N/A   Overcast
11:15 PM 18.9 °F - 15.6 °F 87% 29.77 in 10.0 mi Calm Calm - N/A   Overcast
11:35 PM 19.2 °F 14.1 °F 16.2 °F 88% 29.78 in 10.0 mi WSW 3.5 mph - N/A   Overcast
11:55 PM 19.2 °F 11.3 °F 15.8 °F 87% 29.79 in 10.0 mi SW 5.8 mph - N/A   Overcast